When you browse on this site, cookies collect data to enhance your experience and personalize the content and advertising you see.
Visit our Privacy Policy to learn more. By continuing to use the site, you agree to this use of cookies and data.
  • In Schweiz
  • Länderverzeichnis
  • Für 7 Tage
  • Wassertemperatur
  • Wetterkarte
  • Widgets
  • user-avatar
    Anmelden

    Stündliche Wetter Xiuyan

    Heute, 4 Juni, Donnerstag

    Zeit Temperatur Niederschläge Wind Luftdruck Luftfeuchtigkeit
    00:00 +15°C° 0 mm 1 m/S 741 mmHg 93%
    01:00 +15°C° 0 mm 1 m/S 742 mmHg 90%
    02:00 +14°C° 0 mm 1 m/S 742 mmHg 88%
    03:00 +14°C° 0 mm 1 m/S 742 mmHg 85%
    04:00 +14°C° 0 mm 1 m/S 742 mmHg 82%
    05:00 +13°C° 0 mm 2 m/S 743 mmHg 79%
    06:00 +15°C° 0 mm 2 m/S 743 mmHg 73%
    07:00 +18°C° 0 mm 3 m/S 744 mmHg 66%
    08:00 +20°C° 0 mm 3 m/S 744 mmHg 60%
    09:00 +21°C° 0 mm 3 m/S 744 mmHg 59%
    10:00 +22°C° 0 mm 4 m/S 745 mmHg 57%
    11:00 +23°C° 0 mm 4 m/S 745 mmHg 55%
    12:00 +23°C° 0 mm 4 m/S 745 mmHg 53%
    13:00 +25°C° 0 mm 4 m/S 745 mmHg 52%
    14:00 +25°C° 0 mm 3 m/S 744 mmHg 51%
    15:00 +25°C° 0 mm 3 m/S 744 mmHg 53%
    16:00 +25°C° 0 mm 3 m/S 744 mmHg 56%
    17:00 +25°C° 0 mm 3 m/S 745 mmHg 58%
    18:00 +21°C° 0 mm 2 m/S 745 mmHg 62%
    19:00 +20°C° 0 mm 1 m/S 745 mmHg 66%
    20:00 +18°C° 0 mm 1 m/S 745 mmHg 68%
    21:00 +18°C° 0 mm 1 m/S 746 mmHg 67%
    22:00 +18°C° 0 mm 1 m/S 746 mmHg 67%
    23:00 +16°C° 0 mm 1 m/S 746 mmHg 66%

    Morgen, 5 Juni, Freitag

    Zeit Temperatur Niederschläge Wind Luftdruck Luftfeuchtigkeit
    00:00 +16°C° 0 mm 1 m/S 746 mmHg 67%
    01:00 +15°C° 0 mm 1 m/S 746 mmHg 68%
    02:00 +15°C° 0 mm 1 m/S 746 mmHg 68%
    03:00 +15°C° 0 mm 1 m/S 747 mmHg 68%
    04:00 +15°C° 0 mm 1 m/S 747 mmHg 69%
    05:00 +16°C° 0 mm 1 m/S 747 mmHg 69%
    06:00 +18°C° 0 mm 1 m/S 748 mmHg 66%
    07:00 +20°C° 0 mm 1 m/S 748 mmHg 62%
    08:00 +22°C° 0 mm 1 m/S 748 mmHg 59%
    09:00 +23°C° 0 mm 2 m/S 748 mmHg 56%
    10:00 +24°C° 0 mm 3 m/S 748 mmHg 52%
    11:00 +26°C° 0 mm 3 m/S 748 mmHg 49%
    12:00 +26°C° 0 mm 3 m/S 748 mmHg 47%
    13:00 +27°C° 0 mm 2 m/S 748 mmHg 45%
    14:00 +27°C° 0 mm 2 m/S 747 mmHg 44%
    15:00 +27°C° 0 mm 2 m/S 747 mmHg 47%
    16:00 +27°C° 0 mm 1 m/S 747 mmHg 49%
    17:00 +27°C° 0 mm 1 m/S 747 mmHg 52%
    18:00 +25°C° 0 mm 1 m/S 747 mmHg 57%
    19:00 +22°C° 0 mm 1 m/S 747 mmHg 62%
    20:00 +20°C° 0 mm 1 m/S 747 mmHg 67%
    21:00 +19°C° 0 mm 1 m/S 747 mmHg 67%
    22:00 +19°C° 0 mm 1 m/S 748 mmHg 67%
    23:00 +18°C° 0 mm 1 m/S 748 mmHg 67%

    übermorgen, 6 Juni, Samstag

    Zeit Temperatur Niederschläge Wind Luftdruck Luftfeuchtigkeit
    00:00 +18°C° 0 mm 1 m/S 748 mmHg 68%
    01:00 +18°C° 0 mm 1 m/S 748 mmHg 68%
    02:00 +18°C° 0 mm 1 m/S 748 mmHg 69%
    03:00 +18°C° 0 mm 1 m/S 748 mmHg 70%
    04:00 +18°C° 0 mm 1 m/S 748 mmHg 71%
    05:00 +18°C° 0 mm 1 m/S 748 mmHg 73%
    06:00 +20°C° 0 mm 1 m/S 748 mmHg 68%
    07:00 +22°C° 0 mm 1 m/S 748 mmHg 63%
    08:00 +25°C° 0 mm 1 m/S 748 mmHg 59%
    09:00 +26°C° 0 mm 1 m/S 748 mmHg 54%
    10:00 +27°C° 0 mm 1 m/S 748 mmHg 49%
    11:00 +28°C° 0 mm 1 m/S 748 mmHg 45%
    12:00 +29°C° 0 mm 1 m/S 748 mmHg 44%
    13:00 +29°C° 0 mm 2 m/S 747 mmHg 44%
    14:00 +29°C° 0 mm 2 m/S 747 mmHg 43%
    15:00 +29°C° 0 mm 2 m/S 747 mmHg 49%
    16:00 +28°C° 0 mm 2 m/S 747 mmHg 55%
    17:00 +27°C° 0 mm 2 m/S 746 mmHg 60%
    18:00 +25°C° 0 mm 2 m/S 747 mmHg 67%
    19:00 +23°C° 0 mm 1 m/S 747 mmHg 73%
    20:00 +21°C° 0 mm 1 m/S 747 mmHg 79%
    21:00 +20°C° 0 mm 1 m/S 747 mmHg 80%
    22:00 +18°C° 0 mm 0 m/S 747 mmHg 80%
    23:00 +17°C° 0 mm 0 m/S 748 mmHg 80%

    7 Juni, Sonntag

    Zeit Temperatur Niederschläge Wind Luftdruck Luftfeuchtigkeit
    00:00 +17°C° 0 mm 0 m/S 748 mmHg 80%
    01:00 +18°C° 0 mm 1 m/S 748 mmHg 80%
    02:00 +18°C° 0 mm 1 m/S 748 mmHg 80%
    03:00 +18°C° 0 mm 1 m/S 748 mmHg 80%
    04:00 +16°C° 0 mm 1 m/S 747 mmHg 81%
    05:00 +16°C° 0 mm 1 m/S 747 mmHg 81%
    06:00 +18°C° 0 mm 2 m/S 748 mmHg 75%
    07:00 +20°C° 0 mm 2 m/S 748 mmHg 69%
    08:00 +22°C° 0 mm 3 m/S 748 mmHg 63%
    09:00 +23°C° 0 mm 4 m/S 748 mmHg 63%
    10:00 +25°C° 0 mm 4 m/S 748 mmHg 62%
    11:00 +26°C° 0 mm 5 m/S 748 mmHg 62%
    12:00 +26°C° 0 mm 5 m/S 747 mmHg 65%
    13:00 +26°C° 0 mm 5 m/S 747 mmHg 69%
    14:00 +26°C° 0 mm 5 m/S 747 mmHg 72%
    15:00 +26°C° 0 mm 5 m/S 746 mmHg 74%
    16:00 +25°C° 0 mm 4 m/S 746 mmHg 76%
    17:00 +23°C° 0 mm 4 m/S 746 mmHg 78%
    18:00 +21°C° 0 mm 3 m/S 746 mmHg 84%
    19:00 +20°C° 0 mm 3 m/S 746 mmHg 89%
    20:00 +18°C° 0 mm 2 m/S 746 mmHg 95%
    21:00 +18°C° 0 mm 2 m/S 747 mmHg 96%
    22:00 +17°C° 0 mm 2 m/S 747 mmHg 97%
    23:00 +17°C° 0 mm 2 m/S 748 mmHg 98%

    8 Juni, Montag

    Zeit Temperatur Niederschläge Wind Luftdruck Luftfeuchtigkeit
    00:00 +17°C° 0 mm 2 m/S 748 mmHg 97%
    01:00 +17°C° 0 mm 2 m/S 748 mmHg 96%
    02:00 +17°C° 0 mm 2 m/S 748 mmHg 96%
    03:00 +17°C° 0 mm 2 m/S 748 mmHg 96%
    04:00 +17°C° 0 mm 2 m/S 748 mmHg 95%
    05:00 +17°C° 0 mm 2 m/S 748 mmHg 95%
    06:00 +18°C° 0 mm 2 m/S 749 mmHg 93%
    07:00 +19°C° 0 mm 2 m/S 749 mmHg 90%
    08:00 +20°C° 0 mm 3 m/S 750 mmHg 88%
    09:00 +21°C° 0 mm 3 m/S 750 mmHg 83%
    10:00 +24°C° 0 mm 3 m/S 750 mmHg 78%
    11:00 +25°C° 0 mm 3 m/S 750 mmHg 74%
    12:00 +26°C° 0 mm 3 m/S 750 mmHg 71%
    13:00 +27°C° 0 mm 3 m/S 750 mmHg 68%
    14:00 +28°C° 0 mm 4 m/S 750 mmHg 65%
    15:00 +28°C° 0 mm 4 m/S 749 mmHg 67%
    16:00 +27°C° 0 mm 3 m/S 749 mmHg 70%
    17:00 +26°C° 0 mm 3 m/S 749 mmHg 72%
    18:00 +24°C° 0 mm 3 m/S 749 mmHg 78%
    19:00 +21°C° 0 mm 2 m/S 750 mmHg 84%
    20:00 +20°C° 0 mm 2 m/S 750 mmHg 89%
    21:00 +20°C° 0 mm 1 m/S 750 mmHg 91%
    22:00 +19°C° 0 mm 1 m/S 751 mmHg 92%
    23:00 +19°C° 0 mm 1 m/S 751 mmHg 94%

    9 Juni, Dienstag

    Zeit Temperatur Niederschläge Wind Luftdruck Luftfeuchtigkeit
    00:00 +18°C° 0 mm 1 m/S 751 mmHg 94%
    01:00 +18°C° 0 mm 1 m/S 751 mmHg 95%
    02:00 +18°C° 0 mm 1 m/S 751 mmHg 95%
    03:00 +18°C° 0 mm 1 m/S 752 mmHg 96%
    04:00 +18°C° 0 mm 1 m/S 752 mmHg 96%
    05:00 +18°C° 0 mm 1 m/S 752 mmHg 97%
    06:00 +19°C° 0 mm 1 m/S 752 mmHg 91%
    07:00 +20°C° 0 mm 2 m/S 752 mmHg 86%
    08:00 +21°C° 0 mm 2 m/S 753 mmHg 80%
    09:00 +24°C° 0 mm 2 m/S 752 mmHg 73%
    10:00 +26°C° 0 mm 3 m/S 752 mmHg 65%
    11:00 +28°C° 0 mm 3 m/S 752 mmHg 58%
    12:00 +28°C° 0 mm 3 m/S 752 mmHg 56%
    13:00 +28°C° 0 mm 4 m/S 751 mmHg 53%
    14:00 +28°C° 0 mm 4 m/S 751 mmHg 51%
    15:00 +27°C° 0 mm 4 m/S 751 mmHg 55%
    16:00 +26°C° 0 mm 3 m/S 750 mmHg 59%
    17:00 +25°C° 0 mm 3 m/S 750 mmHg 63%
    18:00 +23°C° 0 mm 2 m/S 750 mmHg 68%
    19:00 +20°C° 0 mm 2 m/S 751 mmHg 73%
    20:00 +19°C° 0 mm 1 m/S 751 mmHg 78%
    21:00 +19°C° 0 mm 1 m/S 751 mmHg 79%
    22:00 +18°C° 0 mm 1 m/S 751 mmHg 81%
    23:00 +16°C° 0 mm 1 m/S 751 mmHg 82%
    Mehr zeigen